GFSSE_700_spd_024.txt.gz
Wind_Speed
4 4 2 0 2 4 5 6 6 6 5 5 5 5 5 5 5 6 5 5 5 5 5 7 7 8 8 9 9 10 10 8 7 7 7 6 5 5 6 5 7 9 9
3 4 3 2 2 4 6 7 9 10 8 7 7 6 6 6 6 5 7 5 3 3 3 3 5 6 7 8 9 10 10 9 9 9 7 6 6 4 4 3 3 4 8
4 3 2 2 3 5 7 8 9 8 8 7 6 5 5 5 5 5 5 6 5 4 2 2 2 4 5 6 7 8 9 8 9 7 5 5 4 3 1 1 1 4 9
7 3 1 1 4 5 6 7 7 7 6 5 4 4 4 3 4 4 5 5 5 5 5 3 1 1 2 4 5 5 5 6 7 5 5 6 2 1 1 2 2 6 7
9 4 3 1 4 6 7 7 7 6 5 4 3 2 2 2 3 4 4 4 4 5 6 5 4 2 1 2 4 2 3 3 2 2 3 5 4 2 3 4 5 6 8
11 6 6 4 4 8 8 8 7 6 6 4 3 1 1 2 3 4 4 4 4 3 4 4 4 3 2 2 1 1 1 1 2 4 4 4 3 4 4 5 8 8 8
13 10 10 8 7 10 11 10 9 8 7 6 4 4 3 2 3 5 4 3 4 4 3 3 3 3 2 3 2 3 3 3 4 5 4 4 4 4 5 6 7 10 10
16 16 12 12 12 13 13 12 12 10 9 8 7 6 5 4 4 5 6 5 5 6 5 4 4 5 4 2 4 5 7 6 5 6 5 6 6 6 5 6 8 8 9
17 16 17 15 15 17 16 16 15 13 12 11 10 9 9 7 6 6 8 8 8 7 7 6 6 6 6 5 5 7 9 10 9 8 5 7 8 8 8 8 9 8 8
17 18 19 17 17 19 20 19 18 16 15 14 14 12 12 11 9 8 9 10 11 10 9 9 8 9 9 8 8 9 10 11 14 9 8 11 10 10 10 9 9 9 8
17 19 18 21 17 20 22 22 21 20 19 17 17 16 15 14 13 12 11 10 12 12 11 11 11 11 11 11 12 12 11 14 16 10 11 14 12 12 13 12 11 10 10
18 16 19 23 22 19 22 23 24 24 22 21 21 20 19 17 16 16 15 14 13 13 13 13 13 13 14 14 15 14 14 15 17 11 13 14 14 14 14 14 14 13 13
19 19 16 20 24 25 22 22 24 25 26 25 24 24 23 20 20 18 18 17 17 16 14 15 15 15 15 16 16 16 16 17 17 15 14 15 14 14 14 15 16 15 15
24 23 17 19 24 27 26 26 25 28 29 28 27 28 26 25 24 22 21 21 19 19 17 15 17 17 17 17 17 17 17 18 19 16 17 17 17 16 16 16 16 16 16
26 27 23 20 23 27 29 31 30 32 32 32 31 31 29 29 28 27 25 24 23 22 20 18 18 18 19 19 19 18 18 19 20 17 17 19 19 18 17 17 17 18 17
26 29 30 26 23 27 30 32 33 34 35 35 34 35 33 33 33 31 30 28 26 25 23 21 20 20 20 20 20 20 20 20 20 20 18 20 20 19 18 17 17 17 17
27 26 31 35 31 27 30 34 34 34 36 37 38 37 36 37 38 35 34 31 29 28 27 25 23 22 22 22 21 20 21 21 21 20 21 20 20 20 19 19 19 19 19
27 28 27 36 39 34 30 34 38 35 36 36 40 39 39 41 40 39 38 35 33 31 30 28 26 25 24 23 23 22 21 21 22 21 21 22 21 20 20 20 21 21 21
31 30 28 31 39 41 35 34 39 39 36 36 40 40 42 42 43 43 40 39 36 34 33 31 29 27 26 25 24 24 23 21 22 22 21 22 21 22 21 21 23 22 22
21 25 27 29 34 40 44 39 40 41 37 36 37 40 40 42 43 44 43 42 39 36 36 33 31 29 28 26 25 25 24 23 23 23 23 23 22 20 22 23 23 24 24
21 26 25 29 27 34 39 48 42 41 40 39 35 37 39 40 41 43 43 42 40 38 37 35 34 31 29 28 26 26 25 24 24 23 23 24 24 23 22 24 24 25 25
29 30 29 30 32 31 33 43 48 46 44 43 42 40 39 38 37 41 43 42 41 38 38 37 35 33 31 28 28 27 27 26 25 24 24 24 25 25 25 26 26 27 27
31 31 32 32 34 38 38 36 46 51 54 50 48 41 39 39 36 40 42 42 41 39 39 38 36 34 32 30 29 29 28 28 25 24 24 25 26 26 27 27 28 29 30
33 32 30 30 28 29 40 43 37 45 53 52 50 45 43 44 40 38 42 43 42 40 40 38 36 35 34 31 30 29 28 28 27 27 26 27 27 27 28 28 29 30 32
29 34 27 27 28 27 27 43 49 46 47 49 49 46 48 47 46 42 42 42 42 41 40 39 38 34 33 33 31 29 29 28 28 28 27 29 30 29 29 29 30 31 32
37 39 42 39 37 36 34 36 36 46 53 51 49 52 48 49 50 48 45 43 43 41 41 41 38 35 34 33 33 31 29 29 28 28 28 29 30 29 30 30 31 32 32

GFSSE_700_spd_030.txt.gz
Wind_Speed
7 4 3 1 1 2 2 2 3 2 3 3 4 5 7 8 8 8 6 5 4 5 7 7 7 7 7 8 8 8 8 7 6 7 7 9 10 7 7 7 9 10 10
8 6 5 2 1 2 3 3 2 3 3 4 5 6 7 8 7 7 7 7 5 3 3 5 6 6 7 7 8 8 9 9 8 7 7 9 9 6 4 4 5 7 10
9 6 5 4 2 1 3 2 2 3 3 4 4 5 7 8 7 7 8 8 7 6 4 4 3 4 6 7 6 7 8 7 7 6 6 6 6 5 2 2 4 7 8
8 6 4 4 2 1 2 3 2 1 1 2 3 4 6 7 8 8 7 6 7 7 7 6 5 3 3 4 5 5 6 6 6 6 5 4 4 2 2 2 2 4 7
7 6 5 5 4 4 3 3 3 2 1 1 2 3 4 6 7 8 8 6 6 6 7 7 6 5 3 2 2 2 3 5 4 3 3 3 4 3 1 0 2 4 5
5 8 8 6 6 6 6 5 5 4 3 3 2 2 4 5 7 7 8 6 6 5 5 6 6 5 5 5 4 3 2 3 5 4 2 1 1 2 1 0 2 3 3
7 8 11 9 8 7 7 9 8 7 6 5 4 4 4 4 6 7 8 7 7 6 5 5 5 5 6 5 4 5 5 6 7 7 6 5 4 3 1 1 2 2 3
11 8 11 13 13 11 10 11 11 11 9 8 7 6 5 5 5 6 7 8 9 8 7 6 6 6 6 6 5 5 7 7 7 7 8 6 5 5 5 3 3 3 3
15 9 10 13 14 15 15 14 15 14 13 11 10 9 8 7 6 7 7 8 9 9 9 8 8 8 8 7 8 7 8 7 7 7 9 9 8 7 8 7 6 4 4
17 15 12 10 14 16 18 18 18 17 17 15 14 13 11 10 10 9 9 9 9 10 11 10 9 9 10 10 11 10 10 9 7 8 10 10 10 11 9 9 9 7 5
23 18 16 12 10 14 16 19 20 20 19 18 17 16 15 14 13 13 13 12 11 11 11 11 11 11 12 12 13 12 11 10 10 9 10 11 10 12 12 11 10 10 9
26 24 18 14 10 9 14 17 19 21 22 21 21 19 18 17 18 17 16 16 15 14 13 13 12 12 13 13 14 14 12 11 11 11 12 11 11 11 12 12 12 12 11
27 25 18 15 13 11 9 12 17 18 19 21 23 23 22 20 21 20 20 19 19 18 17 16 15 14 14 15 15 15 15 14 13 13 13 13 12 11 12 12 13 13 12
29 26 23 20 16 16 16 13 11 16 18 19 21 24 24 23 22 24 24 23 22 22 21 19 17 16 16 16 17 16 16 16 15 15 15 15 14 13 13 13 14 14 14
22 24 23 24 24 22 22 22 18 16 16 20 23 25 24 24 24 26 26 26 26 25 23 22 21 20 19 18 18 18 18 17 17 17 17 15 15 15 14 14 15 15 15
22 22 26 25 21 22 25 26 24 23 21 19 20 23 25 26 27 27 29 28 28 27 26 24 23 22 22 21 20 20 20 20 19 18 18 18 17 16 16 16 15 15 15
26 28 25 27 29 31 30 25 27 29 28 25 23 23 23 25 27 29 29 29 29 29 29 27 26 25 24 24 23 22 21 21 21 20 20 19 19 18 18 17 17 16 16
27 30 32 29 31 34 36 34 31 30 31 32 32 29 25 23 25 27 29 28 30 30 30 29 28 27 27 26 25 25 24 23 22 22 21 20 20 20 20 19 18 18 18
29 28 32 34 34 34 35 38 40 37 33 30 29 34 34 29 25 26 28 28 29 30 30 30 30 29 29 29 28 27 25 24 24 23 23 23 21 21 21 20 20 19 19
31 32 34 35 39 37 36 40 40 43 40 38 36 33 34 37 32 29 27 27 28 29 29 29 29 31 30 31 30 29 28 26 25 25 25 24 23 22 22 22 20 20 21
30 29 31 34 37 41 38 40 42 43 44 41 40 40 39 35 35 36 32 29 30 30 30 31 31 31 29 31 32 31 30 29 27 26 27 26 25 24 23 23 21 20 22
26 26 28 31 34 36 36 38 41 43 47 47 44 44 41 42 43 37 40 37 34 33 33 33 33 31 30 30 32 32 32 31 29 27 27 27 26 25 24 23 23 22 22
26 26 25 29 32 34 33 31 34 38 42 44 47 47 48 47 47 48 40 38 40 36 35 36 35 33 31 31 31 32 32 31 29 28 27 29 27 26 25 24 24 23 23
27 28 30 31 31 33 34 36 36 36 38 40 42 44 50 50 49 49 49 49 43 39 36 34 36 37 36 32 32 30 30 31 31 30 29 29 29 27 27 26 25 25 24
33 35 37 37 38 38 39 39 39 40 41 46 47 47 49 51 52 53 55 48 51 45 39 35 35 38 39 36 33 30 30 31 31 31 30 29 30 28 28 27 26 26 27
42 45 48 51 53 54 54 54 54 55 56 53 54 54 52 51 50 53 56 61 56 54 46 38 38 38 40 39 36 34 31 31 30 30 31 31 30 30 28 28 27 28 28

GFSSE_700_spd_033.txt.gz
Wind_Speed
12 8 4 2 2 1 1 1 1 1 3 5 6 8 8 8 8 8 7 5 3 4 5 4 5 5 6 6 6 6 6 5 5 4 5 8 8 7 6 6 9 9 9
11 8 5 4 2 1 2 2 1 1 4 6 7 8 8 8 8 8 8 8 6 3 2 3 4 6 6 6 6 7 7 6 6 5 5 7 7 5 3 3 5 5 8
10 9 6 4 3 2 0 1 2 3 4 5 6 7 8 9 9 8 7 8 8 8 5 4 3 5 5 6 6 7 7 6 5 5 5 5 4 3 1 2 3 5 7
9 10 7 5 2 2 1 0 0 1 2 3 5 6 7 8 9 9 8 7 8 8 8 7 6 5 4 4 4 4 5 4 5 5 3 2 3 2 0 1 2 5 6
8 9 8 7 4 3 2 1 1 1 1 2 3 4 6 7 8 9 8 8 7 8 7 8 8 7 6 4 4 2 3 4 4 3 2 1 1 1 1 2 4 6 5
9 8 7 8 7 5 5 4 3 3 2 2 2 2 3 5 7 8 8 7 6 6 6 6 7 7 7 6 6 4 3 5 6 4 4 3 1 1 1 2 3 4 4
15 11 9 9 9 7 7 7 7 7 6 4 4 3 3 3 4 6 7 7 7 6 5 5 5 6 6 6 6 6 5 5 5 4 4 4 4 3 2 3 4 3 3
13 13 10 11 13 12 10 10 10 10 9 8 7 6 4 4 4 3 4 6 7 7 6 6 6 6 6 6 6 8 8 7 6 6 6 6 5 5 5 5 4 5 5
16 14 7 9 13 15 15 15 14 14 12 11 10 9 8 7 6 6 5 5 6 7 8 7 6 6 7 6 6 7 8 8 8 8 8 8 8 8 8 7 7 6 5
16 14 9 9 9 11 14 17 18 17 16 15 14 13 12 12 10 9 9 7 8 8 9 8 8 8 8 7 7 7 7 7 8 9 9 9 10 10 10 10 9 8 6
16 17 16 14 11 10 11 13 15 18 19 19 17 16 15 15 14 14 13 12 11 10 10 10 9 9 10 10 8 8 8 8 8 9 10 9 10 11 10 11 10 10 9
19 21 21 17 13 10 8 9 11 15 19 21 21 20 18 17 18 17 17 16 15 13 12 12 11 11 11 11 11 10 10 10 10 9 10 10 10 11 11 11 11 10 11
16 18 16 16 15 13 11 10 11 11 15 18 20 22 21 20 19 20 20 19 19 18 16 15 14 13 12 12 13 12 12 12 12 12 11 11 11 11 11 12 12 12 12
18 16 12 12 13 14 15 16 17 17 15 16 17 18 20 22 22 23 23 23 22 21 20 19 17 15 15 14 13 14 14 14 15 15 14 13 13 12 12 12 13 14 14
21 22 19 17 14 11 14 16 18 20 18 17 19 18 18 19 20 23 26 25 24 24 23 22 20 18 17 16 15 15 16 16 17 17 17 16 15 14 14 13 14 14 15
25 27 25 23 22 21 21 19 19 19 17 17 19 21 20 19 19 20 21 25 27 26 26 25 23 21 19 19 18 17 17 17 18 19 19 18 17 16 16 16 15 15 15
29 31 30 29 29 29 28 28 28 26 26 23 20 19 16 20 21 21 20 22 24 27 28 27 26 24 23 22 21 19 19 19 19 20 21 21 20 19 18 18 17 16 16
35 32 31 31 32 34 34 35 34 34 33 33 31 28 25 19 17 20 23 21 22 24 25 26 27 26 26 25 24 22 21 21 21 21 22 22 22 21 21 19 19 18 17
29 29 30 32 34 35 38 40 39 38 36 36 36 34 32 29 22 20 22 24 22 21 23 25 27 28 28 27 27 26 24 23 23 21 23 24 24 23 23 22 20 20 19
30 29 30 32 34 35 37 41 45 44 43 41 39 40 41 38 31 29 26 26 24 23 23 24 25 27 29 30 30 28 26 25 25 23 23 24 25 25 24 23 22 21 20
25 26 27 29 29 31 33 35 39 44 46 43 42 42 43 44 44 35 35 35 30 30 25 27 27 28 28 30 33 30 29 28 26 24 24 24 25 26 26 25 24 22 21
24 25 27 28 28 28 30 33 37 39 41 42 43 42 42 46 46 46 42 39 39 34 39 35 32 30 29 30 33 33 33 31 27 24 24 24 24 26 26 26 25 23 23
28 28 28 28 29 30 30 26 26 30 34 35 38 39 41 43 41 46 46 46 43 40 42 36 41 32 31 32 33 35 36 33 29 25 23 24 24 24 26 27 26 25 24
31 32 33 34 36 37 37 37 37 37 37 37 37 38 39 41 47 48 48 48 45 49 46 47 44 40 33 33 36 36 35 34 32 31 25 23 24 24 25 27 27 27 26
38 39 40 42 44 47 49 51 51 51 51 51 50 49 48 46 43 45 47 48 50 51 48 49 48 43 40 35 37 36 37 35 34 33 29 25 24 25 26 28 29 28 28
43 46 49 52 52 52 52 54 55 57 58 58 58 58 57 55 53 48 45 49 52 53 53 50 46 47 44 41 34 40 40 38 35 33 32 28 27 26 27 28 29 29 30

GFSSE_700_spd_036.txt.gz
Wind_Speed
13 11 9 4 3 3 4 5 4 4 6 8 10 11 11 11 10 10 9 8 5 5 6 6 6 6 6 6 6 5 5 5 4 4 4 7 7 6 6 6 7 8 8
12 11 10 6 4 3 5 6 5 5 7 9 10 10 10 11 10 10 10 10 9 6 5 5 6 7 6 6 6 7 7 6 5 5 4 4 3 3 3 3 5 6 7
9 9 9 7 5 4 5 5 6 6 6 7 8 8 9 10 10 10 9 10 10 10 9 7 5 6 6 6 6 6 7 7 6 5 4 2 1 1 3 4 5 4 6
10 8 7 6 5 3 3 4 4 4 5 5 6 7 8 9 9 9 8 8 9 9 10 9 8 6 5 5 4 5 6 5 6 5 3 1 1 2 2 3 4 7 8
14 9 8 7 5 3 2 2 3 3 3 3 4 4 6 7 7 8 7 7 7 7 7 8 8 7 6 6 6 4 3 5 5 4 3 1 0 2 3 2 5 7 6
13 10 6 6 7 5 3 2 1 1 1 1 1 2 3 4 5 6 6 6 5 5 5 5 5 5 6 6 6 5 5 5 5 4 3 3 2 2 4 4 5 5 6
14 13 8 6 7 7 6 5 5 4 3 3 2 2 1 1 2 4 5 5 4 3 3 3 3 3 3 3 4 4 4 4 3 2 2 2 3 3 3 4 5 6 4
15 14 12 9 9 10 11 9 9 8 7 6 6 6 5 3 2 1 1 3 3 4 3 2 2 2 3 2 2 2 3 3 3 3 4 3 3 4 5 5 4 5 5
13 13 11 11 9 9 11 14 14 12 11 10 10 9 9 8 7 6 5 3 2 3 3 3 3 2 3 4 4 4 4 4 4 4 5 5 5 6 6 6 6 5 5
12 13 13 14 11 8 7 8 10 13 15 15 14 13 12 11 11 10 10 8 6 5 4 4 4 3 3 4 5 5 6 5 5 6 5 6 7 7 7 8 7 7 7
10 10 12 12 13 10 9 8 8 9 10 14 17 17 15 15 14 14 13 13 12 10 8 7 6 6 5 5 6 7 7 7 7 7 7 7 8 8 8 9 9 8 8
11 10 8 5 6 7 8 9 12 16 15 13 14 17 19 18 16 16 16 16 16 15 13 11 10 8 7 6 6 8 9 9 9 9 9 9 9 9 10 10 9 9 9
15 14 13 9 6 5 4 6 9 13 16 17 15 13 12 16 19 19 19 19 19 18 17 16 14 13 11 9 8 8 10 10 11 11 11 10 10 11 11 11 11 11 11
19 17 16 13 13 10 9 5 5 7 8 10 12 13 12 11 12 14 19 21 22 21 20 20 18 17 15 13 11 10 10 11 13 13 13 12 12 12 12 12 12 12 13
20 21 22 21 18 16 17 12 12 13 12 10 11 11 13 14 12 12 13 16 20 22 23 22 21 20 19 16 15 13 12 12 13 14 15 15 14 14 14 13 13 13 14
22 23 24 25 26 25 23 23 20 18 18 16 18 17 15 12 11 12 14 14 15 18 21 23 23 23 23 21 18 17 16 15 14 15 16 17 17 16 16 15 14 14 14
30 30 30 30 27 26 27 28 29 27 26 25 24 25 25 22 18 15 10 12 16 16 18 20 23 24 24 23 23 22 20 18 17 16 17 18 19 19 18 18 16 15 14
30 30 30 27 25 27 27 29 30 33 34 32 29 30 31 31 29 24 21 15 14 16 17 17 19 21 23 24 25 26 25 22 21 20 18 19 20 20 20 20 19 17 16
27 28 29 30 30 29 29 31 32 33 35 37 37 34 34 35 36 34 33 26 26 23 19 19 19 19 21 24 26 28 27 26 25 23 21 20 20 21 22 21 21 19 18
23 26 27 27 27 27 30 31 32 33 34 35 37 39 39 41 40 39 39 34 30 30 29 26 24 24 22 22 26 28 29 28 28 26 24 22 22 22 22 23 22 21 20
22 24 25 27 27 27 26 26 28 30 33 36 37 38 39 41 43 44 43 42 38 39 34 31 31 30 27 27 29 29 29 30 30 28 27 24 23 23 23 23 23 23 22
26 27 28 29 29 29 29 28 28 29 30 32 36 37 38 40 41 41 43 45 43 41 42 39 37 35 34 36 34 31 33 34 31 30 28 26 25 24 23 23 24 24 23
28 29 31 33 34 36 37 37 37 36 35 32 32 33 35 37 40 40 43 41 45 42 36 45 42 41 38 34 36 39 36 36 33 31 30 28 27 24 23 22 23 24 24
34 36 39 41 43 44 45 46 48 48 49 49 48 44 43 40 38 39 43 47 49 49 54 51 47 46 46 47 42 37 36 36 36 35 33 30 29 27 25 24 23 24 24
38 40 42 45 47 50 52 53 54 56 57 56 54 54 53 49 48 47 46 46 47 49 48 49 48 49 46 50 49 45 40 37 38 39 37 32 29 28 28 27 26 26 26
43 48 51 55 57 57 56 56 55 52 47 46 46 46 45 45 44 43 44 44 45 47 49 50 49 50 50 51 51 50 47 41 36 39 39 36 33 32 31 29 27 26 27

GFSSE_700_spd_042.txt.gz
Wind_Speed
8 8 8 4 3 5 5 7 8 8 7 7 7 7 7 6 7 7 7 6 6 5 4 6 7 6 5 5 5 6 5 4 4 4 4 4 3 4 4 7 8 8 9
7 6 7 6 3 4 6 7 8 8 8 7 7 7 7 7 7 7 7 7 7 6 4 6 6 6 5 6 6 5 4 5 4 4 3 2 0 2 4 4 5 5 9
9 5 6 6 5 4 6 8 8 8 6 6 6 6 6 7 6 6 6 6 6 6 6 5 6 6 5 5 5 4 4 4 4 4 4 2 1 3 3 3 4 6 6
9 5 4 4 4 3 4 6 7 7 6 4 4 4 4 5 5 5 5 5 5 5 5 5 6 5 4 4 3 3 4 4 4 3 2 1 2 2 3 3 4 5 4
12 7 2 1 2 2 4 5 5 6 6 5 4 2 2 3 3 3 3 3 3 3 3 3 4 4 4 4 3 3 1 1 1 2 3 2 2 3 2 1 2 4 4
12 10 4 2 2 0 1 3 5 5 5 5 4 3 2 1 1 1 1 1 1 1 2 1 2 2 2 3 4 4 4 2 2 2 3 3 2 3 2 2 2 3 3
10 8 6 4 2 4 3 2 3 4 5 5 5 4 4 3 2 2 1 1 1 1 2 3 3 3 4 4 4 4 5 3 4 4 4 5 6 5 5 3 3 2 2
10 9 8 6 5 3 5 7 7 7 8 8 8 7 7 6 6 5 4 3 3 2 3 4 5 6 6 6 6 6 5 5 6 7 6 6 7 7 7 6 6 4 3
9 9 7 6 5 5 5 4 7 10 12 12 12 11 11 10 10 10 9 8 7 6 5 5 6 7 7 8 9 8 7 7 8 8 9 9 8 9 8 8 8 7 6
9 10 8 6 5 1 2 4 4 4 7 10 14 14 14 14 14 14 14 13 12 11 10 9 7 8 9 10 12 11 11 10 11 10 10 9 9 9 9 9 9 9 8
10 10 10 9 7 5 4 2 2 0 2 4 7 11 16 17 17 17 17 17 17 16 15 14 12 11 11 11 14 14 13 13 13 13 12 11 10 10 10 9 8 9 9
13 12 12 11 11 9 8 8 7 4 3 4 6 7 9 13 18 20 20 21 21 21 20 19 18 16 15 14 15 16 16 17 16 15 15 13 12 12 12 10 11 9 9
14 15 14 13 13 11 11 12 12 11 11 8 7 8 10 11 12 17 22 24 25 24 24 24 23 22 21 19 18 18 18 19 19 19 18 17 15 14 14 12 12 11 11
11 12 12 12 12 13 14 15 14 15 16 16 16 14 12 12 15 16 17 19 23 27 28 28 27 27 25 24 22 21 21 21 21 21 21 20 19 17 17 15 14 13 13
13 13 14 15 15 16 18 19 20 20 19 19 20 20 20 18 18 19 23 23 22 23 24 29 31 31 30 28 27 26 25 24 24 23 23 23 22 21 20 19 17 16 15
16 17 18 18 18 19 21 22 24 25 26 25 25 25 26 25 24 25 24 26 30 30 27 27 28 30 33 32 31 30 29 28 27 26 25 25 25 24 24 23 21 19 18
16 15 13 13 14 16 17 18 19 24 27 29 31 32 30 31 30 32 32 30 31 33 35 32 30 30 30 32 35 34 33 32 31 30 29 27 27 26 26 26 25 23 21
12 12 13 12 12 12 13 15 18 20 22 25 28 30 34 37 38 39 38 37 38 36 34 35 35 30 29 30 32 35 37 36 35 34 32 31 29 28 28 27 27 26 25
14 15 17 19 20 21 21 20 19 20 21 24 26 28 30 32 34 38 43 44 43 44 43 39 38 39 35 32 32 33 34 37 38 37 36 34 33 31 30 28 29 29 28
15 16 18 19 20 21 23 25 27 29 31 31 31 31 31 32 33 34 35 37 44 48 46 48 46 42 40 38 35 34 33 34 35 36 37 37 36 34 32 31 30 30 30
16 18 20 21 22 23 23 24 26 28 31 34 37 37 37 38 39 39 40 40 40 41 45 47 51 50 48 44 43 40 37 35 35 34 35 35 36 35 34 33 32 32 31
19 21 24 26 27 28 29 30 32 33 32 33 35 36 39 42 43 42 42 42 43 45 45 46 45 50 54 52 48 44 44 41 38 35 35 33 34 36 35 34 34 33 32
24 27 30 32 35 37 39 39 40 40 41 41 41 40 38 38 38 40 43 45 46 47 48 49 49 47 50 55 56 54 47 49 42 41 36 35 36 36 35 35 35 34 33
30 33 35 36 38 40 41 42 43 44 44 45 46 47 48 48 47 43 40 40 42 46 51 53 52 52 53 52 56 53 52 49 47 42 43 40 36 36 37 36 36 34 34
32 34 37 39 39 41 43 45 47 48 48 49 50 50 50 51 50 49 47 44 41 42 46 51 55 55 55 54 54 55 55 58 55 49 49 47 43 37 35 38 37 35 34
33 37 40 40 43 45 46 47 49 50 52 52 53 54 54 53 53 52 49 47 46 42 42 44 46 52 54 56 54 54 54 59 59 54 55 49 49 46 38 37 41 39 37

GFSSE_700_spd_045.txt.gz
Wind_Speed
7 7 6 3 2 3 4 4 4 4 5 4 5 5 4 4 5 5 4 5 3 3 3 4 4 4 5 6 5 5 4 4 5 4 3 3 4 6 6 6 6 7 8
8 6 6 4 2 3 5 6 5 5 4 4 4 4 5 4 4 4 4 4 4 4 2 4 4 4 4 5 5 4 4 3 3 2 1 0 2 5 6 6 7 8 9
8 4 4 4 2 3 4 5 5 5 4 3 3 3 4 4 3 3 4 4 3 3 2 3 3 4 3 4 4 3 3 2 2 1 1 2 2 3 5 6 7 9 8
9 4 2 2 2 1 4 5 5 5 4 3 2 1 2 2 3 3 3 3 3 3 3 2 1 2 2 3 3 2 3 2 2 1 2 2 3 4 4 4 6 7 6
11 8 3 2 2 1 2 4 5 6 5 4 3 2 1 0 1 1 1 1 1 1 0 0 0 1 1 2 3 2 1 2 2 3 3 3 2 4 4 3 4 5 6
12 11 7 3 3 3 4 6 7 8 7 7 6 5 4 3 2 1 1 2 2 2 3 3 3 3 3 3 3 3 4 3 4 3 4 5 4 4 3 4 3 4 4
11 10 8 6 5 7 7 7 9 9 9 9 9 8 7 6 6 5 4 3 3 4 6 6 5 6 5 5 5 5 6 6 6 5 6 8 6 7 7 5 4 4 4
11 11 10 8 7 6 7 10 11 11 11 12 12 11 11 11 10 9 8 7 6 6 7 7 7 8 7 8 8 8 8 8 9 8 8 9 9 9 8 8 7 6 5
11 12 11 9 8 8 7 6 8 11 14 14 14 15 15 15 15 14 13 12 11 10 10 9 8 9 10 10 10 10 10 11 12 11 11 11 11 9 9 9 9 8 7
10 11 4 6 8 7 8 8 7 8 9 12 15 17 18 19 19 18 18 17 17 16 15 13 12 12 12 13 13 12 13 13 15 13 14 12 12 12 11 10 9 9 8
11 7 7 6 6 11 12 11 9 10 9 10 11 13 16 19 21 21 21 21 21 21 21 20 17 17 16 15 15 15 15 17 16 17 17 13 14 14 13 12 10 10 9
16 16 15 15 12 12 11 15 9 14 12 13 14 15 14 15 17 21 23 24 24 24 25 25 25 22 22 20 19 19 18 19 19 19 21 16 17 16 16 14 13 12 11
16 19 18 18 17 17 16 13 14 15 14 13 12 14 19 18 18 18 20 22 25 27 27 28 28 29 27 26 24 23 22 22 22 22 23 20 19 19 19 17 16 14 13
14 16 17 18 18 20 20 19 19 19 19 19 19 20 20 20 22 21 21 22 22 23 24 29 30 31 32 31 30 28 27 26 26 26 26 23 23 22 22 20 19 16 15
17 17 17 18 19 20 23 23 24 25 25 23 25 25 25 24 24 24 26 27 27 26 26 26 26 29 32 34 34 33 32 32 31 30 30 25 26 25 24 24 22 21 18
17 18 18 20 21 22 23 24 25 26 28 30 31 31 31 31 30 30 30 30 30 31 32 31 30 30 29 29 32 36 37 36 35 34 33 31 28 28 28 27 26 25 22
14 14 14 13 14 16 18 20 21 22 22 24 28 33 35 36 36 36 36 35 35 36 37 37 37 35 33 31 31 33 35 39 40 38 38 36 33 31 30 29 29 28 27
11 11 11 11 12 13 14 15 17 19 21 23 25 27 28 29 31 35 40 42 41 43 41 40 39 38 38 37 35 32 34 35 39 41 41 39 38 35 33 31 30 30 29
10 11 13 14 15 17 19 20 20 21 22 23 25 26 28 30 30 32 33 35 37 42 47 47 47 47 45 42 42 41 38 36 36 39 42 42 40 39 38 34 33 31 31
12 13 15 16 18 20 22 23 24 26 28 30 31 32 33 35 35 37 38 39 39 39 39 42 46 48 51 49 47 46 46 43 38 36 37 40 40 41 40 39 35 34 32
14 15 17 19 20 22 23 25 27 29 31 32 34 34 35 37 38 39 40 43 45 46 46 44 44 45 46 49 54 53 52 49 47 42 37 38 39 37 39 40 39 37 35
17 18 20 23 25 28 28 29 30 31 31 33 34 34 34 35 36 38 40 42 44 46 48 51 51 50 49 47 47 54 57 52 53 50 45 41 39 38 36 38 39 38 37
18 22 26 29 31 34 36 37 37 39 40 41 41 42 43 43 43 43 43 42 42 44 47 49 52 54 55 51 50 48 53 59 54 52 51 47 43 41 38 37 36 37 37
24 28 30 32 35 38 38 40 42 43 43 43 43 44 46 48 50 50 49 49 47 45 45 46 50 52 54 58 55 50 51 51 58 54 36 40 46 44 40 35 36 36 37
26 27 30 35 38 38 40 43 45 46 47 48 48 49 51 51 50 51 51 51 51 51 48 46 46 50 53 54 56 58 53 54 49 54 55 50 44 47 41 40 37 35 37
31 32 34 39 40 42 44 45 47 48 49 51 52 53 53 53 53 52 52 52 53 52 49 48 46 46 49 52 53 53 58 54 55 50 56 59 44 49 41 44 41 38 36

GFSSE_700_spd_048.txt.gz
Wind_Speed
6 6 4 1 1 2 2 2 3 3 3 4 6 6 5 4 5 5 4 5 4 5 5 5 5 6 6 7 6 6 6 6 6 4 4 3 4 6 7 7 7 8 9
7 5 5 3 1 2 2 2 2 2 2 3 4 5 4 4 4 4 5 4 4 4 3 4 3 4 5 5 5 5 5 4 3 2 1 2 4 6 6 7 7 9 8
7 4 4 4 2 1 1 3 3 2 2 1 2 3 3 4 4 4 4 4 3 4 3 3 3 2 2 3 3 3 3 3 2 2 2 3 4 5 6 6 7 7 7
10 6 2 2 2 1 3 4 5 5 4 3 1 0 1 2 3 2 2 3 2 2 3 2 2 2 1 0 1 1 1 2 2 2 3 1 3 5 5 5 6 8 8
12 10 6 4 4 4 4 6 6 6 6 5 4 3 2 1 1 1 1 1 1 1 0 1 2 3 3 1 1 1 2 3 3 5 5 4 3 4 4 5 7 6 7
11 11 9 7 6 7 6 7 8 8 8 7 7 6 6 5 4 3 3 3 3 4 4 3 4 3 4 4 4 4 5 6 5 6 6 6 5 5 5 6 6 6 6
13 11 10 8 7 7 9 9 9 10 10 10 10 9 9 9 8 7 6 5 6 6 6 6 6 5 5 5 5 6 7 9 8 7 8 5 7 8 8 6 6 6 6
11 12 11 8 6 7 7 8 10 11 11 12 12 12 12 12 12 11 10 10 9 9 8 8 9 9 8 8 8 7 8 11 12 10 11 8 9 8 8 8 8 7 6
11 12 15 8 8 8 7 7 7 8 11 13 14 15 16 16 16 15 14 14 14 13 12 11 11 11 11 11 11 11 11 12 13 13 15 9 11 10 9 9 9 9 8
9 9 4 18 17 19 9 10 11 8 8 9 10 13 17 18 19 19 18 19 18 18 17 16 15 15 14 14 14 14 14 14 16 13 16 11 12 12 11 11 9 9 9
13 11 10 7 6 11 7 14 10 11 10 10 12 12 12 16 18 21 20 22 22 22 22 21 20 20 20 18 18 17 17 18 17 17 19 13 14 14 14 12 11 11 10
12 15 14 13 13 16 18 16 15 10 12 12 12 10 15 16 17 18 18 21 24 24 25 25 25 24 24 24 23 22 21 21 20 21 21 17 17 16 16 15 14 12 11
13 14 16 18 18 20 23 18 17 15 16 16 16 18 17 15 20 22 21 20 21 22 24 27 28 28 27 26 28 26 25 25 25 23 25 22 21 21 20 18 17 15 13
14 15 16 19 19 22 23 20 21 22 21 20 22 21 20 20 24 18 25 26 25 24 22 24 25 25 28 31 30 29 30 30 29 30 28 26 25 24 23 23 20 18 17
18 17 18 20 20 21 22 23 23 25 26 26 26 27 26 28 28 25 27 30 29 30 26 28 27 27 28 26 27 30 32 33 33 33 34 31 25 28 27 26 25 22 20
18 17 19 21 22 23 24 25 25 25 26 27 29 30 32 33 34 34 33 33 34 35 36 36 34 33 33 32 29 27 28 30 33 36 37 36 33 31 30 29 28 27 24
13 14 16 17 16 16 18 19 19 21 22 24 25 26 27 30 33 35 37 39 39 39 41 43 41 40 40 39 36 34 31 29 31 33 37 37 36 35 34 32 31 30 28
12 11 12 13 14 15 16 17 18 18 20 21 24 25 26 28 30 31 32 33 34 36 39 42 45 46 45 43 43 43 40 38 34 33 34 35 35 36 38 37 35 33 32
12 12 12 13 14 15 18 18 20 20 22 23 24 25 27 28 30 31 33 34 36 36 36 37 39 42 44 46 48 48 46 45 44 39 38 37 35 35 36 38 38 36 34
13 14 15 16 18 19 20 21 22 23 24 25 26 27 29 29 30 31 32 33 36 39 40 41 41 40 42 43 44 48 51 50 49 47 41 41 38 34 35 36 38 38 36
14 15 18 18 19 21 21 22 23 24 24 25 28 30 32 33 33 34 34 35 36 37 39 41 43 45 44 45 48 49 46 49 55 53 49 45 44 39 35 36 35 36 38
16 17 18 21 22 23 24 27 30 32 33 35 36 37 38 39 39 39 39 40 41 42 43 43 44 45 45 47 48 49 53 51 48 50 54 52 48 46 42 37 37 34 36
17 21 22 24 26 29 33 35 36 37 38 39 39 39 39 40 41 43 45 47 47 46 46 46 45 46 48 48 48 49 51 54 52 48 47 53 53 49 47 42 38 37 35
20 26 29 30 30 33 36 39 40 42 43 42 43 43 42 43 44 46 47 48 48 47 48 47 46 46 46 47 49 51 46 48 49 52 45 48 48 51 50 52 44 39 37
25 27 30 31 32 35 39 41 44 46 46 46 46 46 47 47 48 49 48 47 47 47 47 47 47 46 44 44 47 48 50 49 46 50 53 46 45 42 46 43 49 45 40
31 32 32 34 36 40 43 47 47 47 48 48 48 49 50 51 52 51 51 48 47 47 46 47 49 50 47 40 42 46 47 46 49 46 48 49 47 48 46 49 48 39 43